• Em Portugal
  • Lista de países
  • Para 7 dias
  • Temperatura da água
  • Mapas de satélite
  • Mapa do tempo
  • Widgets de tempo
  • user-avatar
    Iniciar Sessão

    Previsão horária em Orlowo

    Hoje, 21 Agosto, Terça-feira

    Tempo Temperatura Precipitação Vento Pressão Humidade
    00:00 +18°C° 0 mm 4 m/s 743 mmHg 88%
    01:00 +17°C° 0 mm 4 m/s 743 mmHg 88%
    02:00 +17°C° 0 mm 4 m/s 744 mmHg 90%
    03:00 +15°C° 0 mm 4 m/s 744 mmHg 90%
    04:00 +15°C° 0 mm 4 m/s 744 mmHg 90%
    05:00 +14°C° 0 mm 4 m/s 744 mmHg 90%
    06:00 +15°C° 0 mm 4 m/s 744 mmHg 86%
    07:00 +16°C° 0 mm 5 m/s 745 mmHg 82%
    08:00 +17°C° 0 mm 5 m/s 745 mmHg 76%
    09:00 +19°C° 0 mm 5 m/s 745 mmHg 71%
    10:00 +19°C° 0 mm 5 m/s 746 mmHg 66%
    11:00 +20°C° 0 mm 5 m/s 746 mmHg 60%
    12:00 +21°C° 0 mm 5 m/s 746 mmHg 59%
    13:00 +21°C° 0 mm 5 m/s 746 mmHg 57%
    14:00 +22°C° 0 mm 5 m/s 747 mmHg 56%
    15:00 +21°C° 0 mm 5 m/s 747 mmHg 57%
    16:00 +21°C° 0 mm 5 m/s 747 mmHg 59%
    17:00 +21°C° 0 mm 5 m/s 747 mmHg 60%
    18:00 +19°C° 0 mm 4 m/s 747 mmHg 67%
    19:00 +17°C° 0 mm 4 m/s 748 mmHg 73%
    20:00 +16°C° 0 mm 3 m/s 748 mmHg 79%
    21:00 +13°C° 0 mm 3 m/s 749 mmHg 82%
    22:00 +12°C° 0 mm 3 m/s 749 mmHg 86%
    23:00 +11°C° 0 mm 3 m/s 749 mmHg 89%

    Amanhã, 22 Agosto, Quarta-feira

    Tempo Temperatura Precipitação Vento Pressão Humidade
    00:00 +12°C° 0 mm 2 m/s 750 mmHg 90%
    01:00 +10°C° 0 mm 2 m/s 750 mmHg 91%
    02:00 +10°C° 0 mm 2 m/s 750 mmHg 92%
    03:00 +9°C° 0 mm 2 m/s 751 mmHg 92%
    04:00 +10°C° 0 mm 1 m/s 751 mmHg 93%
    05:00 +10°C° 0 mm 1 m/s 751 mmHg 93%
    06:00 +11°C° 0 mm 1 m/s 751 mmHg 87%
    07:00 +13°C° 0 mm 1 m/s 752 mmHg 82%
    08:00 +14°C° 0 mm 1 m/s 752 mmHg 76%
    09:00 +16°C° 0 mm 2 m/s 752 mmHg 68%
    10:00 +17°C° 0 mm 2 m/s 752 mmHg 61%
    11:00 +19°C° 0 mm 2 m/s 752 mmHg 53%
    12:00 +20°C° 0 mm 2 m/s 752 mmHg 50%
    13:00 +22°C° 0 mm 1 m/s 752 mmHg 47%
    14:00 +22°C° 0 mm 1 m/s 751 mmHg 43%
    15:00 +22°C° 0 mm 1 m/s 751 mmHg 44%
    16:00 +22°C° 0 mm 1 m/s 751 mmHg 44%
    17:00 +22°C° 0 mm 1 m/s 751 mmHg 45%
    18:00 +20°C° 0 mm 1 m/s 751 mmHg 51%
    19:00 +18°C° 0 mm 2 m/s 750 mmHg 57%
    20:00 +16°C° 0 mm 2 m/s 750 mmHg 63%
    21:00 +15°C° 0 mm 2 m/s 750 mmHg 66%
    22:00 +13°C° 0 mm 3 m/s 750 mmHg 69%
    23:00 +13°C° 0 mm 3 m/s 750 mmHg 72%

    Depois de amanhã, 23 Agosto, Quinta-feira

    Tempo Temperatura Precipitação Vento Pressão Humidade
    00:00 +12°C° 0 mm 3 m/s 750 mmHg 72%
    01:00 +12°C° 0 mm 3 m/s 750 mmHg 73%
    02:00 +12°C° 0 mm 3 m/s 750 mmHg 74%
    03:00 +12°C° 0 mm 3 m/s 750 mmHg 75%
    04:00 +11°C° 0 mm 3 m/s 750 mmHg 75%
    05:00 +11°C° 0 mm 3 m/s 749 mmHg 76%
    06:00 +12°C° 0 mm 3 m/s 749 mmHg 73%
    07:00 +14°C° 0 mm 4 m/s 749 mmHg 70%
    08:00 +15°C° 0 mm 4 m/s 749 mmHg 66%
    09:00 +18°C° 0 mm 4 m/s 749 mmHg 62%
    10:00 +20°C° 0 mm 4 m/s 749 mmHg 58%
    11:00 +22°C° 0 mm 4 m/s 749 mmHg 54%
    12:00 +23°C° 0 mm 4 m/s 748 mmHg 52%
    13:00 +25°C° 0 mm 4 m/s 748 mmHg 51%
    14:00 +25°C° 0 mm 4 m/s 748 mmHg 49%
    15:00 +25°C° 0 mm 3 m/s 747 mmHg 51%
    16:00 +25°C° 0 mm 3 m/s 747 mmHg 53%
    17:00 +25°C° 0 mm 3 m/s 746 mmHg 54%
    18:00 +24°C° 0 mm 3 m/s 746 mmHg 60%
    19:00 +21°C° 0 mm 3 m/s 746 mmHg 65%
    20:00 +19°C° 0 mm 3 m/s 746 mmHg 70%
    21:00 +19°C° 0 mm 3 m/s 746 mmHg 70%
    22:00 +19°C° 0 mm 3 m/s 746 mmHg 70%
    23:00 +19°C° 0 mm 4 m/s 745 mmHg 70%

    24 Agosto, Sexta-feira

    Tempo Temperatura Precipitação Vento Pressão Humidade
    00:00 +18°C° 0 mm 4 m/s 745 mmHg 74%
    01:00 +18°C° 0 mm 3 m/s 745 mmHg 79%
    02:00 +17°C° 0 mm 3 m/s 744 mmHg 83%
    03:00 +17°C° 0 mm 3 m/s 744 mmHg 85%
    04:00 +17°C° 0 mm 3 m/s 744 mmHg 86%
    05:00 +17°C° 0 mm 3 m/s 744 mmHg 88%
    06:00 +18°C° 0 mm 3 m/s 743 mmHg 85%
    07:00 +19°C° 0 mm 4 m/s 743 mmHg 82%
    08:00 +19°C° 0 mm 4 m/s 743 mmHg 79%
    09:00 +21°C° 0 mm 4 m/s 743 mmHg 73%
    10:00 +23°C° 0 mm 5 m/s 743 mmHg 68%
    11:00 +26°C° 0 mm 5 m/s 742 mmHg 63%
    12:00 +27°C° 0 mm 5 m/s 742 mmHg 60%
    13:00 +28°C° 0 mm 5 m/s 742 mmHg 57%
    14:00 +29°C° 0 mm 5 m/s 741 mmHg 55%
    15:00 +28°C° 0,1 mm 5 m/s 741 mmHg 57%
    16:00 +28°C° 0,1 mm 4 m/s 740 mmHg 59%
    17:00 +28°C° 0,1 mm 4 m/s 740 mmHg 61%
    18:00 +27°C° 0,4 mm 4 m/s 740 mmHg 65%
    19:00 +26°C° 0,4 mm 4 m/s 739 mmHg 69%
    20:00 +23°C° 0,4 mm 4 m/s 739 mmHg 73%
    21:00 +22°C° 1 mm 4 m/s 739 mmHg 78%
    22:00 +22°C° 1 mm 4 m/s 739 mmHg 82%
    23:00 +21°C° 1 mm 5 m/s 739 mmHg 87%

    25 Agosto, Sábado

    Tempo Temperatura Precipitação Vento Pressão Humidade
    00:00 +20°C° 0,6 mm 4 m/s 739 mmHg 89%
    01:00 +20°C° 0,6 mm 4 m/s 739 mmHg 91%
    02:00 +19°C° 0,6 mm 4 m/s 739 mmHg 94%
    03:00 +19°C° 0,3 mm 3 m/s 739 mmHg 95%
    04:00 +19°C° 0,3 mm 3 m/s 739 mmHg 96%
    05:00 +19°C° 0,3 mm 2 m/s 738 mmHg 97%
    06:00 +19°C° 0,6 mm 2 m/s 739 mmHg 96%
    07:00 +19°C° 0,6 mm 2 m/s 739 mmHg 95%
    08:00 +19°C° 0,6 mm 2 m/s 739 mmHg 94%
    09:00 +19°C° 0,3 mm 3 m/s 740 mmHg 92%
    10:00 +19°C° 0,3 mm 3 m/s 740 mmHg 91%
    11:00 +19°C° 0,3 mm 3 m/s 740 mmHg 89%
    12:00 +19°C° 0,3 mm 3 m/s 741 mmHg 89%
    13:00 +19°C° 0,3 mm 3 m/s 741 mmHg 88%
    14:00 +18°C° 0,3 mm 4 m/s 741 mmHg 88%
    15:00 +18°C° 0,2 mm 3 m/s 741 mmHg 89%
    16:00 +17°C° 0,2 mm 3 m/s 742 mmHg 90%
    17:00 +17°C° 0,2 mm 3 m/s 742 mmHg 91%
    18:00 +16°C° 0 mm 2 m/s 742 mmHg 92%
    19:00 +16°C° 0 mm 2 m/s 742 mmHg 93%
    20:00 +15°C° 0 mm 2 m/s 743 mmHg 94%
    21:00 +15°C° 0 mm 2 m/s 743 mmHg 94%
    22:00 +15°C° 0 mm 2 m/s 743 mmHg 94%
    23:00 +14°C° 0 mm 2 m/s 743 mmHg 94%

    26 Agosto, Domingo

    Tempo Temperatura Precipitação Vento Pressão Humidade
    00:00 +14°C° 0 mm 2 m/s 743 mmHg 93%
    01:00 +13°C° 0 mm 3 m/s 743 mmHg 93%
    02:00 +13°C° 0 mm 3 m/s 743 mmHg 92%
    03:00 +13°C° 0,1 mm 3 m/s 743 mmHg 92%
    04:00 +13°C° 0,1 mm 3 m/s 743 mmHg 92%
    05:00 +13°C° 0,1 mm 3 m/s 742 mmHg 92%
    06:00 +13°C° 0,4 mm 4 m/s 742 mmHg 93%
    07:00 +13°C° 0,4 mm 4 m/s 742 mmHg 93%
    08:00 +13°C° 0,4 mm 4 m/s 742 mmHg 94%
    09:00 +13°C° 1,2 mm 4 m/s 742 mmHg 94%
    10:00 +14°C° 1,2 mm 4 m/s 742 mmHg 94%
    11:00 +14°C° 1,2 mm 4 m/s 741 mmHg 94%
    12:00 +15°C° 0,7 mm 4 m/s 741 mmHg 93%
    13:00 +15°C° 0,7 mm 4 m/s 741 mmHg 91%
    14:00 +17°C° 0,7 mm 4 m/s 741 mmHg 90%
    15:00 +15°C° 0,6 mm 4 m/s 741 mmHg 91%
    16:00 +15°C° 0,6 mm 5 m/s 740 mmHg 92%
    17:00 +15°C° 0,6 mm 5 m/s 740 mmHg 93%
    18:00 +14°C° 1,7 mm 5 m/s 740 mmHg 94%
    19:00 +13°C° 1,7 mm 5 m/s 741 mmHg 94%
    20:00 +12°C° 1,7 mm 5 m/s 741 mmHg 95%
    21:00 +10°C° 0,8 mm 5 m/s 741 mmHg 95%
    22:00 +10°C° 0,8 mm 5 m/s 742 mmHg 95%
    23:00 +9°C° 0,8 mm 5 m/s 742 mmHg 94%
    Mostrar mais